TROY229 KCRG-KCRG

Flight info

Callsign TROY229
Flight time 0h 9m
Altitude 3000
Route KCRG KCRG
Aircraft H60/L-DGILORTUVY/SB2

Departure

Time 2026-04-24 23:52
Airport Jacksonville Executive at Craig Airport (KCRG)

Arrival

Time 2026-04-25 00:01
Airport Jacksonville Executive at Craig Airport (KCRG)
Time Latitude Longitude Altitude Speed Heading
2026-04-24 23:18 30.33765 -81.51627 46 ft 0 kts 219°
2026-04-24 23:23 30.33732 -81.51603 87 ft 14 kts 118°
2026-04-24 23:23 30.33666 -81.51336 240 ft 63 kts 120°
2026-04-24 23:23 30.33375 -81.50650 404 ft 118 kts 122°
2026-04-24 23:24 30.32980 -81.49704 418 ft 139 kts 119°
2026-04-24 23:24 30.32555 -81.48704 518 ft 138 kts 119°
2026-04-24 23:24 30.32143 -81.47709 534 ft 135 kts 119°
2026-04-24 23:24 30.31730 -81.46724 531 ft 136 kts 119°
2026-04-24 23:25 30.31318 -81.45740 534 ft 135 kts 119°
2026-04-24 23:25 30.30895 -81.44772 537 ft 135 kts 119°
2026-04-24 23:25 30.30460 -81.43817 539 ft 132 kts 119°
2026-04-24 23:25 30.30021 -81.42874 541 ft 134 kts 118°
2026-04-24 23:26 30.29577 -81.41922 543 ft 134 kts 119°
2026-04-24 23:26 30.29126 -81.40977 544 ft 134 kts 119°
2026-04-24 23:26 30.28672 -81.40031 545 ft 135 kts 118°
2026-04-24 23:26 30.28206 -81.39092 543 ft 135 kts 122°
2026-04-24 23:27 30.27517 -81.38340 542 ft 139 kts 149°
2026-04-24 23:27 30.26631 -81.37954 548 ft 137 kts 161°
2026-04-24 23:27 30.25715 -81.37600 552 ft 140 kts 161°
2026-04-24 23:27 30.24805 -81.37222 548 ft 139 kts 161°
2026-04-24 23:28 30.23887 -81.36895 551 ft 137 kts 161°
2026-04-24 23:28 30.22996 -81.36554 560 ft 136 kts 162°
2026-04-24 23:28 30.22041 -81.36381 559 ft 140 kts 172°
2026-04-24 23:28 30.21098 -81.36277 556 ft 136 kts 172°
2026-04-24 23:29 30.20142 -81.36168 558 ft 139 kts 172°
2026-04-24 23:29 30.19179 -81.36064 560 ft 139 kts 172°
2026-04-24 23:29 30.18208 -81.35943 560 ft 140 kts 172°
2026-04-24 23:29 30.17259 -81.35858 562 ft 135 kts 172°
2026-04-24 23:30 30.16314 -81.35744 567 ft 136 kts 171°
2026-04-24 23:30 30.15410 -81.35629 567 ft 132 kts 171°
2026-04-24 23:30 30.14477 -81.35515 567 ft 137 kts 171°
2026-04-24 23:30 30.13544 -81.35423 567 ft 130 kts 172°
2026-04-24 23:31 30.12626 -81.35342 566 ft 134 kts 171°
2026-04-24 23:31 30.11691 -81.35232 565 ft 137 kts 172°
2026-04-24 23:31 30.10733 -81.35112 568 ft 138 kts 171°
2026-04-24 23:31 30.09796 -81.34973 572 ft 137 kts 168°
2026-04-24 23:32 30.08876 -81.34692 588 ft 138 kts 160°
2026-04-24 23:32 30.08131 -81.34345 576 ft 131 kts 156°
2026-04-24 23:32 30.07378 -81.33977 557 ft 134 kts 156°
2026-04-24 23:32 30.06508 -81.33569 566 ft 135 kts 156°
2026-04-24 23:33 30.05639 -81.33147 562 ft 136 kts 156°
2026-04-24 23:33 30.05057 -81.32862 566 ft 138 kts 156°
2026-04-24 23:33 30.03871 -81.32315 571 ft 137 kts 156°
2026-04-24 23:33 30.02974 -81.31903 565 ft 140 kts 156°
2026-04-24 23:34 30.02079 -81.31542 569 ft 136 kts 160°
2026-04-24 23:34 30.01172 -81.31201 570 ft 139 kts 160°
2026-04-24 23:34 30.00250 -81.30843 568 ft 140 kts 160°
2026-04-24 23:34 29.99340 -81.30469 567 ft 140 kts 160°
2026-04-24 23:35 29.98413 -81.30126 567 ft 135 kts 160°
2026-04-24 23:35 29.97514 -81.29787 567 ft 137 kts 160°
2026-04-24 23:35 29.96595 -81.29451 567 ft 140 kts 160°
2026-04-24 23:35 29.95674 -81.29117 564 ft 137 kts 160°
2026-04-24 23:36 29.94765 -81.28783 587 ft 139 kts 160°
2026-04-24 23:36 29.93848 -81.28436 579 ft 140 kts 160°
2026-04-24 23:36 29.92943 -81.28085 598 ft 134 kts 160°
2026-04-24 23:36 29.92045 -81.27753 580 ft 135 kts 160°
2026-04-24 23:37 29.91131 -81.27440 563 ft 138 kts 160°
2026-04-24 23:37 29.90210 -81.27095 564 ft 140 kts 160°
2026-04-24 23:37 29.88327 -81.26711 555 ft 145 kts 192°
2026-04-24 23:38 29.87746 -81.27102 557 ft 150 kts 216°
2026-04-24 23:38 29.87260 -81.28178 555 ft 159 kts 256°
2026-04-24 23:38 29.87522 -81.29432 562 ft 168 kts 301°
2026-04-24 23:38 29.88453 -81.30208 562 ft 167 kts 344°
2026-04-24 23:39 29.89709 -81.30616 581 ft 138 kts 348°
2026-04-24 23:39 29.90360 -81.30807 577 ft 147 kts 348°
2026-04-24 23:39 29.91380 -81.31101 568 ft 154 kts 348°
2026-04-24 23:39 29.92438 -81.31404 569 ft 159 kts 348°
2026-04-24 23:40 29.93510 -81.31766 570 ft 161 kts 345°
2026-04-24 23:40 29.94577 -81.32151 569 ft 161 kts 345°
2026-04-24 23:40 29.95642 -81.32529 569 ft 162 kts 345°
2026-04-24 23:40 29.96714 -81.32920 571 ft 161 kts 345°
2026-04-24 23:41 29.97773 -81.33321 568 ft 160 kts 345°
2026-04-24 23:41 29.98827 -81.33722 573 ft 159 kts 345°
2026-04-24 23:41 29.99875 -81.34115 568 ft 158 kts 345°
2026-04-24 23:41 30.00926 -81.34505 583 ft 159 kts 345°
2026-04-24 23:42 30.01978 -81.34884 584 ft 158 kts 345°
2026-04-24 23:42 30.03034 -81.35248 606 ft 158 kts 345°
2026-04-24 23:42 30.04086 -81.35637 565 ft 160 kts 345°
2026-04-24 23:42 30.05154 -81.36031 563 ft 160 kts 345°
2026-04-24 23:43 30.06210 -81.36436 563 ft 159 kts 345°
2026-04-24 23:43 30.07250 -81.36830 568 ft 159 kts 345°
2026-04-24 23:43 30.08311 -81.37216 566 ft 160 kts 345°
2026-04-24 23:43 30.09374 -81.37613 565 ft 161 kts 345°
2026-04-24 23:44 30.10447 -81.38001 564 ft 163 kts 345°
2026-04-24 23:44 30.11526 -81.38393 559 ft 161 kts 345°
2026-04-24 23:44 30.12600 -81.38767 563 ft 163 kts 345°
2026-04-24 23:44 30.13679 -81.39163 565 ft 163 kts 345°
2026-04-24 23:45 30.14757 -81.39569 564 ft 162 kts 345°
2026-04-24 23:45 30.15823 -81.39987 567 ft 162 kts 345°
2026-04-24 23:45 30.16897 -81.40391 561 ft 160 kts 345°
2026-04-24 23:45 30.17955 -81.40779 582 ft 160 kts 345°
2026-04-24 23:46 30.19027 -81.41160 575 ft 163 kts 345°
2026-04-24 23:46 30.20089 -81.41529 579 ft 157 kts 345°
2026-04-24 23:46 30.21139 -81.41907 565 ft 159 kts 345°
2026-04-24 23:46 30.22191 -81.42274 576 ft 154 kts 345°
2026-04-24 23:47 30.23166 -81.42775 544 ft 156 kts 324°
2026-04-24 23:47 30.23685 -81.43839 559 ft 152 kts 278°
2026-04-24 23:47 30.23505 -81.44997 554 ft 147 kts 249°
2026-04-24 23:47 30.23266 -81.46172 548 ft 155 kts 261°
2026-04-24 23:48 30.23229 -81.47423 556 ft 151 kts 264°
2026-04-24 23:48 30.23179 -81.48629 563 ft 151 kts 264°
2026-04-24 23:48 30.23175 -81.49863 560 ft 155 kts 264°
2026-04-24 23:48 30.23167 -81.51115 570 ft 157 kts 264°
2026-04-24 23:49 30.23126 -81.52381 564 ft 158 kts 264°
2026-04-24 23:49 30.23107 -81.53645 545 ft 156 kts 264°
2026-04-24 23:49 30.23099 -81.54915 546 ft 160 kts 264°
2026-04-24 23:49 30.23059 -81.56185 559 ft 157 kts 264°
2026-04-24 23:50 30.23018 -81.57439 574 ft 155 kts 264°
2026-04-24 23:50 30.22974 -81.58696 568 ft 157 kts 264°
2026-04-24 23:50 30.22936 -81.59964 538 ft 156 kts 264°
2026-04-24 23:50 30.22902 -81.61222 536 ft 155 kts 261°
2026-04-24 23:51 30.22726 -81.62448 541 ft 155 kts 257°
2026-04-24 23:51 30.22587 -81.63689 543 ft 155 kts 257°
2026-04-24 23:51 30.22422 -81.64919 545 ft 154 kts 257°
2026-04-24 23:51 30.22248 -81.66140 556 ft 154 kts 257°
2026-04-24 23:52 30.22121 -81.67287 713 ft 139 kts 260°
2026-04-24 23:52 30.22042 -81.68449 576 ft 146 kts 265°
2026-04-24 23:52 30.22086 -81.69547 1062 ft 133 kts 270°
2026-04-24 23:52 30.22205 -81.70676 1092 ft 149 kts 286°
2026-04-24 23:53 30.22636 -81.71644 1131 ft 118 kts 338°
2026-04-24 23:53 30.23299 -81.71360 1353 ft 113 kts 78°
2026-04-24 23:53 30.23299 -81.70427 886 ft 130 kts 107°
2026-04-24 23:53 30.23154 -81.69429 287 ft 116 kts 91°
2026-04-24 23:54 30.23171 -81.68558 115 ft 104 kts 93°
2026-04-24 23:54 30.23174 -81.67675 102 ft 116 kts 94°
2026-04-24 23:54 30.23176 -81.66707 168 ft 124 kts 92°
2026-04-24 23:54 30.23172 -81.65738 404 ft 116 kts 94°
2026-04-24 23:55 30.23087 -81.64828 652 ft 103 kts 123°
2026-04-24 23:55 30.22486 -81.64661 869 ft 109 kts 203°
2026-04-24 23:55 30.22052 -81.65429 956 ft 121 kts 251°
2026-04-24 23:55 30.21882 -81.66385 974 ft 121 kts 260°
2026-04-24 23:56 30.21787 -81.67360 975 ft 121 kts 260°
2026-04-24 23:56 30.21688 -81.68336 975 ft 125 kts 260°
2026-04-24 23:56 30.21582 -81.69320 978 ft 124 kts 260°
2026-04-24 23:56 30.21476 -81.70273 988 ft 119 kts 260°
2026-04-24 23:57 30.21380 -81.71256 978 ft 122 kts 260°
2026-04-24 23:57 30.21256 -81.72229 987 ft 123 kts 260°
2026-04-24 23:57 30.21141 -81.73184 978 ft 120 kts 260°
2026-04-24 23:57 30.21021 -81.74151 969 ft 123 kts 260°
2026-04-24 23:58 30.20902 -81.75109 971 ft 121 kts 260°
2026-04-24 23:58 30.20969 -81.76058 1105 ft 125 kts 299°
2026-04-24 23:58 30.21758 -81.76549 978 ft 134 kts
2026-04-24 23:58 30.22588 -81.76202 1087 ft 123 kts 47°
2026-04-24 23:59 30.22985 -81.75353 1230 ft 124 kts 82°
2026-04-24 23:59 30.23138 -81.74364 1200 ft 129 kts 93°
2026-04-24 23:59 30.23158 -81.73307 1071 ft 131 kts 102°
2026-04-24 23:59 30.23125 -81.72250 917 ft 133 kts 99°
2026-04-25 00:00 30.23137 -81.71188 592 ft 132 kts 91°
2026-04-25 00:00 30.23159 -81.70153 400 ft 129 kts 92°
2026-04-25 00:00 30.23167 -81.69137 141 ft 119 kts 95°
2026-04-25 00:00 30.23165 -81.68372 78 ft 69 kts 98°
2026-04-25 00:01 30.23149 -81.68051 38 ft 16 kts 124°
2026-04-25 00:01 30.23014 -81.68017 28 ft 19 kts 185°
2026-04-25 00:01 30.22937 -81.68015 3 ft 8 kts 176°
2026-04-25 00:01 30.22920 -81.67992 25 ft 2 kts 100°
2026-04-25 00:02 30.22920 -81.67990 25 ft 0 kts 88°